THOR AGENA B R/B, 1807

Orbit data source: Space-Track

THOR AGENA B R/B, 1807 is space debris in LEO originally from a launch on Mon, 29 Nov 1965 UTC launched from the Air Force Western Test Range (AFWTR). Debris objects in space refer to the collection of defunct objects orbiting the Earth. Examples of debris include non-operational satellites, rocket bodies, and fragments generated from explosions, collisions, or faulty payload assembly.

Loading next visibility...
Identifier
1807, 1965-098C
Orbit
LEO
Country
Flag of USUS
Related business
Manufacturer
LMSC
Mission
Spacecraft
Bus & Motor
AGENA B, Unknown motor
Mass
600 kg wet, 600 kg dry
Launch date (UTC)
1965-11-29 (60 years ago)
Launch vehicle
Unknown
Launch site
Air Force Western Test Range (AFWTR)
Object type
Payload
Rocket body
Debris
Shape & HBR
Unknown
Radar Cross Section
Large (>1 m²)

Expand to show TLE details & history
Last TLE update: 11 hours ago

TLE from 11 hours ago
0 THOR AGENA B R/B
1 01807U 65098C   25309.80825876  .00000794  00000-0  25519-3 0  9992
2 01807  79.8361 230.7318 1332410 123.9007 249.6081 12.27720449645881
Epoch: 2025-11-05T19:23Z
TLE epoch observation values (Epoch: 2025-11-05T19:23:53.556Z)
Latitude
0.00001°
Longitude
-105.51696°
Altitude
2,045.031 km
Speed
6.668 km/s
True Right ascension
15h 22m 55s
True Declination
0° 00' 00"
Sunlit
Object was in daylight at epoch
Visualization orbit readout
Latitude
Unknown
Longitude
Unknown
Altitude
Unknown
Speed
Unknown
Apparent Right ascension
Unknown
Apparent Declination
Unknown
Sunlit
N/A
Visualization observer readout
Local Sidereal Time
02:17:34
Azimuth
Unknown
Elevation
Unknown
Doppler factor
Unknown
Orbital elements
Apogee altitude
2,613.733 km
Perigee altitude
499.292 km
Semi-major axis
7,934.65 km
Eccentricity
0.13324
Inclination
79.8361°
RAAN
230.7318°
Arg. of periapsis
123.9007°
True anomaly
236.20543°
Mean anomaly
249.6081°
Eccentric anomaly
242.81712°
Mean motion
3.0708 °/min
Orbital period
117.23 mins
BSTAR
0.00025519
Loading maneuver chart data...
Computing Atmospheric mass density...
Loading historical data...
Loading historical data...
Loading historical data...
Loading historical data...
Loading historical data...
Loading historical data...
Loading historical data...

Documentation

Showing up to 5 results
|